TTU100 (46312 NORAD) Tracking and Keplerian Element Data

This shows tracking and keplerian element data for the satellite.

Feedback or suggestion? Click here.




ElementValue
Catalog46312
NameTTU100
Epoch Orbit1293
Epoch Day333.17432584
Epoch Year2020
RAAN44.7775
Inclination97.5117
Eccentricity0.0002802
Argument of Perigee4.1296
Mean Anonmoly355.9957
Mean Motion15.11000945
Decay Rate1.925E-05
L11 46312U 20061AS 20333.17432584 .00001925 00000-0 11907-3 0 9998
L22 46312 97.5117 44.7775 0002802 4.1296 355.9957 15.11000945 12930

Live tracking and technical data element details for TTU100 (NORAD 46312). TTU100 can be tracked NOW for your location showing map with azimuth and elevation plus other details from your city location.

Track the satellite on the map from your city or location and see movement details for azimuth, elevation, latitude, longitude, range, height, and movement on the map or in text.







IsCatalogInMostPopularTable: catalog: 46312, numindb: 37
Update: records affected: 1



GetName: 46312 TTU100

Hit Count: updated at: Sun, 29 Nov 2020 10:18:51 GMT